Home   Weather   Carson City   Past weeks

Flag for USA Past Weather in Carson City, Nevada, USA — Yesterday and Last 2 Weeks

Now
49 °F

Partly sunny.


Feels Like: 45 °F
Forecast: 42 / 53 °F
Wind: 10 mph from West

Location: Reno Tahoe International Airport

Current Time: Apr 24, 2017 at 8:21:43 am

Latest Report: Apr 24, 2017 at 7:55 am


Visibility: 10 mi

Pressure: 29.78 "Hg (25.07 "Hg at 1425m altitude)

Humidity: 48%

Dew Point: 30 °F

Location of Carson CityLocation

Past Weather in Carson City — Graph

°F

Carson City Temperature Yesterday

Maximum temperature yesterday: 68 °F (at 12:55 pm)
Minimum temperature yesterday: 43 °F (at 3:55 am)
Average temperature yesterday: 55 °F

High & Low Weather Summary for the Past Weeks

 TemperatureHumidityPressure
High74 °F (Apr 22, 12:55 pm)86% (Apr 18, 6:55 am)30.28 "Hg (Apr 18, 6:55 am)
Low28 °F (Apr 9, 6:55 am)8% (Apr 19, 12:55 pm)29.64 "Hg (Apr 12, 9:55 pm)
Average50 °F45%29.97 "Hg
* Reported Apr 9 6:55 am — Apr 24 6:55 am, Carson City, Weather by CustomWeather, © 2017

Note: Actual official high and low records may vary slightly from our data, if they occured in-between our weather recording intervals... More about our weather records

Advertising

Carson City Weather History for the Previous 24 Hours

Scroll right to see more
 ConditionsComfort  
Time TempWeatherWind HumidityBarometerVisibility
6:55 am
Mon, Apr 24
48 °FBroken clouds.6 mph52%29.75 "Hg10 mi
5:55 am47 °FOvercast.13 mph54%29.73 "Hg10 mi
4:55 am47 °FPartly cloudy.9 mph52%29.75 "Hg10 mi
3:55 am49 °FPartly cloudy.3 mph35%29.74 "Hg10 mi
2:55 am50 °FOvercast.3 mph29%29.75 "Hg10 mi
1:55 am50 °FOvercast.5 mph30%29.77 "Hg10 mi
12:55 am49 °FPartly cloudy.5 mph41%29.79 "Hg10 mi
11:55 pm
Sun, Apr 23
48 °FPassing clouds.8 mph46%29.80 "Hg10 mi
10:55 pm51 °FPassing clouds.7 mph39%29.83 "Hg10 mi
9:55 pm51 °FPartly cloudy.7 mph41%29.86 "Hg10 mi
8:55 pm52 °FPartly cloudy.17 mph37%29.87 "Hg10 mi
7:55 pm55 °FPartly cloudy.17 mph30%29.85 "Hg10 mi
6:55 pm59 °FBroken clouds.14 mph22%29.83 "Hg10 mi
5:55 pm62 °FBroken clouds.18 mph21%29.81 "Hg10 mi
4:55 pm64 °FBroken clouds.17 mph18%29.78 "Hg10 mi
3:55 pm66 °FBroken clouds.23 mph16%29.77 "Hg10 mi
2:55 pm68 °FPartly sunny.21 mph12%29.78 "Hg10 mi
1:55 pm68 °FPartly sunny.13 mph15%29.78 "Hg10 mi
12:55 pm68 °FScattered clouds.15 mph16%29.77 "Hg10 mi
11:55 am63 °FPassing clouds.5 mph22%29.80 "Hg10 mi
10:55 am61 °FPassing clouds.5 mph24%29.83 "Hg10 mi
9:55 am56 °FPassing clouds.3 mph37%29.83 "Hg10 mi
8:55 am51 °FPartly sunny.3 mph50%29.84 "Hg10 mi
Weather by CustomWeather, © 2017

See weather overviewHow to use our weather pages